Location: Neuvy Saint Sepulchre
(46.5953°N, 1.8122°E)
Time: 05:23:05
(UTC+01:00)

ISS - Pass Details

Date: 23 November 2023
Orbit: 416 x 417 km, 51.6° (Epoch: 01 December)

Event Time Altitude Azimuth Distance (km) Brightness Sun altitude
Rises 19:49:31 0° 283° (WNW) 2,361 1.2 -26.6°
Reaches altitude 10° 19:51:44 10° 294° (WNW) 1,499 -0.2 -27.0°
Enters shadow 19:52:54 18° 306° (NW) 1,097 -1.1 -27.2°
